FENGYUN 1C DEB

Satellite information

Favourite Embed

Satellite Type and Status

DEBRISIN ORBIT

Key statistics

Satellite FENGYUN 1C DEB at a glance.

Uptime

9613

Days in orbit

Revolutions

≈ 13.6

Per day

Orbit

SSO

Sun Synchronous Orbit

Inclination

99.6

Latest

Satellite identification and parameters

Extended collection of information and parameters for FENGYUN 1C DEB.

Object identification

Identified? True

Debris? True

Object name: FENGYUN 1C DEB

International designator: 1999-025AQN

Object number (NORAD): 30680

Object ID (CCSDS): 30680

Country: PEOPLES REPUBLIC OF CHINA (PRC)

Current information (Y/N): Y

RCS size: SMALL

Orbital parameters

Period: 106.269 minutes

Inclination: 99.6222 deg

SMA: 7431.848 km

Apoapsis: 1302.76 km

Periapsis: 804.667 km

RAAN: 290.7212 deg

Eccentricy: 0.03351071

Argument of periapsis: 60.6468 deg

Mean anomaly: 302.7702 deg

Mean motion: 13.55056781 rev/day

Mean motion (dot): 0.00008494 rev/day2

B* drag term: 0.0086354347 1/REarth

Two-line elements (TLE)

Creation date: Sept. 3, 2025, 2:21 a.m.

Reference frame: TEME

Reference center: EARTH

Epoch: Sept. 2, 2025, 7:39 p.m. UTC

TLE line 0: 0 FENGYUN 1C DEB

TLE line 1: 1 30680U 99025AQN 25245.81912091 .00008494 00000-0 86354-2 0 9994

TLE line 2: 2 30680 99.6222 290.7212 0335107 60.6468 302.7702 13.55056781908864

Live tracking on map

Real-time ground track for satellite FENGYUN 1C DEB.

In-orbit conjunctions

A list of the most updated potential collisions computed for object FENGYUN 1C DEB.

Target Orbit TCA Probability of collision Miss distance Type
CZ-6A DEB LEO 2024-12-23 16:53:19 0.0002828477 263.0 (m) DEBRIS
FENGYUN 1C DEB SSO 2024-07-11 13:21:31 0.0001172035 226.0 (m) DEBRIS
GREB LEO 2024-07-02 21:45:27 0.0002197688 466.0 (m) PAYLOAD

Associated space launch

Chinese polar orbiting meteorological satellite

FENGYUN 1C DEB was lifted into orbit during the mission ‘Long March 4B | Feng Yun 1C’, on board a Long March 4B space rocket.

The launch took place on May 10, 1999, 1:33 a.m. from Launch Complex 7.

For more information about the launch, click the button.

Launch to space Long March 4B | Feng Yun 1C
Long March 4B | Feng Yun 1C

Agency: N/A

Status: Launch Successful

Launch date: May 10, 1999, 1:33 a.m. UTC

Rocket: Long March 4B

Launch pad: Launch Complex 7

Location: Taiyuan Satellite Launch Center, People's Republic of China

...

Latest news about this satellite

There are no fresh news available about this satellite. Check back as we update our databases every day.


Newsletter sign-up

Weekly statistics, charts and insights to help you stay on top of the space industry.